Other Public Products
Issued by NWS Charleston, SC

Current Version | Previous Version | Text Only | Print | Product List | Glossary Off
Versions: 1 2 3 4 5 6 7 8 9 10 11 12 13 14 15 16 17 18 19 20 21 22 23 24 25 26 27 28 29 30 31 32 33 34 35 36 37 38 39 40 41 42 43 44 45 46 47 48 49 50

820
FPUS82 KCHS 241632
OPUCHS

TEST...KCHS/KSAV Gateway Observations...TEST
National Weather Service Charleston SC
1200 PM EDT SUN SEP 24 2017

NOTE: "fair" indicates few or no clouds below 12,000 feet with no
significant weather and/or obstructions to visibility.

SCZ050-WAZ558-NCZ071-TXZ119-213-PAZ071-DCZ001-FLZ074-172-MI076-
NYZ176-178-MAZ016-IL014-TNZ027-NJZ106-GAZ044-MD014-241700-

...Gateway Observations for Charleston International...

CITY           SKY/WX    TMP DP  RH WIND       PRES   REMARKS
Chas Airport   CLOUDY    80  69  69 NE12      30.00F
Seattle        PTSUNNY   54  49  83 W6        30.17R
Charlotte      PTSUNNY   82  66  58 NE9       30.11F
Dallas DFW     MOSUNNY   83  69  62 S14       29.94S
Dallas Love    MOSUNNY   82  70  66 S9        29.95S
Philladelphia  SUNNY     86  65  49 E9        30.08F
Wash National  MOSUNNY   86  65  49 E5        30.09F
Baltimore      MOSUNNY   86  64  47 E10       30.08F
Miami          MOSUNNY   89  74  60 CALM      29.88F HX  98
Detroit        SUNNY     84  65  52 VRB5      30.17F
Newark         SUNNY     87  63  44 NE9       30.07S
Laguardia      SUNNY     87  65  47 NE5       30.06F
J F K          SUNNY     88  64  44 N7        30.08S
Boston Logan   SUNNY     77  63  61 E5        30.06S
Ft. Lauderdale MOSUNNY   88  77  69 VRB5      29.88S HX 100
Chicago O`Hare SUNNY     87  62  43 S10       30.09S
Chicago Midway SUNNY     86  63  45 SW5       30.09F
Houston Bush   MOSUNNY   86  75  69 E8        29.92S HX  95
Houston Hobby  PTSUNNY   88  72  58 E8        29.91R HX  94
Nashville      MOSUNNY   85  66  53 S7        30.08S
Atlanta        PTSUNNY   79  65  62 E12       30.10S

$$

GAZ044-118-TXZ119-213-NCZ071-DCZ001-MDZ014-506-PAZ021-071-NJZ106-
NYZ176-178-MAZ106-OHZ011-021-055-MIZ076-KYZ091-ILZ014-INZ047-
MNZ060-ONZ431-241700-

...Gateway Observations for Savannah International...

CITY           SKY/WX    TMP DP  RH WIND       PRES   REMARKS
Savannah Arpt  PTSUNNY   85  71  63 N12       30.01F HX  90
Atlanta        PTSUNNY   79  65  62 E12       30.10S
Charlotte      PTSUNNY   82  66  58 NE9       30.11F
Dallas DFW     MOSUNNY   83  69  62 S14       29.94S
Houston Bush   MOSUNNY   86  75  69 E8        29.92S HX  95
Wash National  MOSUNNY   86  65  49 E5        30.09F
Wash Dulles    MOSUNNY   83  65  54 NE6       30.11F
Baltimore      MOSUNNY   86  64  47 E10       30.08F
Philadelphia   SUNNY     86  65  49 E9        30.08F
Newark         SUNNY     87  63  44 NE9       30.07S
Laguardia      SUNNY     87  65  47 NE5       30.06F
J F K          SUNNY     88  64  44 N7        30.08S
Boston         SUNNY     77  63  61 E5        30.06S
Pittsburg      MOSUNNY   83  61  47 VRB5      30.19S
Akron          MOSUNNY   87  63  44 VRB7      30.19F
Cleveland      SUNNY     90  64  42 SE10      30.18F HX  91
Cincinnati     MOSUNNY   81  65  58 SE6       30.12F
Columbus       SUNNY     85  56  37 S8        30.13F
Detroit        SUNNY     84  65  52 VRB5      30.17F
Chicago O`Hare SUNNY     87  62  43 S10       30.09S
Minneapolis    PTSUNNY   82  67  60 S16       29.94F
Indianapolis   SUNNY     83  60  45 E5        30.11F
Toronto Canada SUNNY     88  66  48 VRB2      30.15F HX  90

$$




USA.gov is the U.S. government's official web portal to all federal, state and local government web resources and services.